Weather in Jember

Indonesia     8°08′56″S   113°42′43″E
temp.,
°C
wind,
m/s
gust,
m/s
humid.,
%
clouds,
%
prec.,
mm/h
press.,
hPa
HPBL,
m
29 july, thu
thu2901:00+20ene119711 0.0 101323
04:00+19ene11965 0.0 101223
07:00+23ne028173 0.0 1014249
10:00+30s245418 0.0 10131358
13:00+31s334961 0.1 10101714
16:00+28sse246758 0.1 1010822
19:00+23nne029024 0.3 1012110
22:00+23se028947 0.1 1014109
30 july, fri
fri3001:00+21se12959 0.2 101395
04:00+20e119631 0.0 101235
07:00+23ese02835 0.0 1014230
10:00+30ssw225422 0.0 10131374
13:00+30ssw325573 0.0 10111515
16:00+27ssw127751 0.8 1011251
19:00+23ne129499 2.3 101483
22:00+22e129514 0.0 101586
31 july, sat
sat3101:00+21ene129610 0.0 101438
04:00+20e11965 0.0 101328
07:00+23e028910 0.0 1014197
10:00+29s235678 0.0 10131253
13:00+30s225696 0.1 10111331
16:00+27se137384 0.8 1010257
19:00+22ene129382 1.4 1013120
22:00+21e129762 0.0 101485
1 august, sun
sun101:00+21ese129641 0.1 101379
04:00+20ese12967 0.0 101396
07:00+23se03861 0.0 1014245
10:00+29s245523 0.0 10131387
13:00+30sse225178 0.1 10091665
16:00+27se356318 0.1 1010964
19:00+23ene128740 0.2 1012116
22:00+22e129346 0.1 101392
2 august, mon
mon201:00+21se119785 0.1 101244
04:00+20se019799 0.0 101131
07:00+23ssw028431 0.0 1013282
10:00+29s245998 0.1 10121230
13:00+30s2354100 0.4 10091469
16:00+28ese3464100 0.8 1009975
19:00+22ese1390100 0.9 1012124
22:00+21ese129476 0.0 1013100